User: anonymous   Login
Location: Unspecified
(0.0000°N, 0.0000°E)
Time: 02:58:45
(UTC+00:00)
Language:

SN 39 - Orbit

View from above orbital plane
View from above orbital plane
View from above satellite
View from above satellite

Ground track
Ground track

The orbit data is extracted from the following two-line orbital elements,

1 00671U 63038C   18171.84732226  .00000050  00000-0  69120-4 0  9993
2 00671  90.0657 327.6510 0042174  70.7853  98.5749 13.44805915683352
Epoch (UTC): 20 June 2018 20:20:08
Eccentricity: 0.0042174
inclination: 90.0657°
perigee height: 1060 km
apogee height: 1123 km
right ascension of ascending node: 327.6510°
argument of perigee: 70.7853°
revolutions per day: 13.44805915
mean anomaly at epoch: 98.5749°
orbit number at epoch: 68335

The dashed part of the orbit path shows where the satellite is in the earth's shadow,  

DLR